This demonstration page uses our WeatherBlox Daily Observations layout. Learn more.

Hourly Observations for June 1, 2020

Temp ( °F °C ) Dew Point ( °F °C ) Humidity (%) Winds ( mph kmh ) Pressure ( in mb ) Visibility ( mi km ) Precip ( " mm )
12:15 am 00:15 Clear 55 13 41 5 59 59 NW 8 13 30.23 1024 10 16.0934 0 0
12:35 am 00:35 Clear 55 13 41 5 59 59 NNW 7 11 30.23 1024 10 16.0934 0 0
12:55 am 00:55 Clear 55 13 41 5 59 59 N 6 9 30.24 1024 10 16.0934 0 0
1:15 am 01:15 Clear 55 13 41 5 59 59 N 7 11 30.25 1024 10 16.0934 0 0
1:35 am 01:35 Clear 54 12 41 5 63 63 NNW 7 11 30.25 1024 10 16.0934 0 0
1:55 am 01:55 Clear 54 12 41 5 63 63 NNW 7 11 30.26 1025 10 16.0934 0 0
2:15 am 02:15 Clear 55 13 39 4 55 55 N 8 13 30.26 1025 10 16.0934 0 0
2:35 am 02:35 Clear 54 12 41 5 63 63 NNW 6 9 30.26 1025 10 16.0934 0 0
2:55 am 02:55 Clear 54 12 39 4 58 58 N 3 6 30.27 1025 10 16.0934 0 0
3:15 am 03:15 Clear 54 12 41 5 63 63 N 5 7 30.27 1025 10 16.0934 0 0
3:35 am 03:35 Clear 54 12 41 5 63 63 NNW 5 7 30.28 1026 10 16.0934 0 0
3:55 am 03:55 Clear 52 11 41 5 67 67 Calm 30.28 1026 10 16.0934 0 0
4:15 am 04:15 Clear 52 11 41 5 67 67 Calm 30.28 1026 10 16.0934 0 0
4:35 am 04:35 Clear 50 10 41 5 71 71 Calm 30.3 1026 10 16.0934 0 0
4:55 am 04:55 Clear 50 10 41 5 71 71 Calm 30.31 1026 10 16.0934 0 0
5:15 am 05:15 Clear 48 9 41 5 76 76 NW 3 6 30.32 1027 10 16.0934 0 0
5:35 am 05:35 Clear 46 8 41 5 82 82 Calm 30.32 1027 10 16.0934 0 0
5:55 am 05:55 Sunny 46 8 41 5 82 82 Calm 30.32 1027 10 16.0934 0 0
6:15 am 06:15 Sunny 46 8 41 5 82 82 Calm 30.33 1027 10 16.0934 0 0
6:35 am 06:35 Sunny 48 9 41 5 76 76 Calm 30.34 1027 10 16.0934 0 0
6:55 am 06:55 Sunny 50 10 43 6 76 76 Calm 30.34 1027 10 16.0934 0 0
7:15 am 07:15 Sunny 52 11 45 7 77 77 Calm 30.35 1028 10 16.0934 0 0
7:35 am 07:35 Sunny 54 12 43 6 67 67 N 6 9 30.35 1028 10 16.0934 0 0
7:55 am 07:55 Sunny 55 13 43 6 63 63 N 5 7 30.36 1028 10 16.0934 0 0
8:15 am 08:15 Sunny 57 14 43 6 59 59 NW 6 9 30.36 1028 10 16.0934 0 0
8:35 am 08:35 Sunny 59 15 41 5 51 51 NNW 7 11 30.36 1028 10 16.0934 0 0
8:55 am 08:55 Sunny 59 15 43 6 55 55 NW 7 11 30.36 1028 10 16.0934 0 0
9:15 am 09:15 Sunny 61 16 41 5 48 48 NNW 5 7 30.36 1028 10 16.0934 0 0
9:35 am 09:35 Sunny 61 16 41 5 48 48 WNW 5 7 30.36 1028 10 16.0934 0 0
9:55 am 09:55 Sunny 63 17 39 4 42 42 N 5 7 30.35 1028 10 16.0934 0 0
10:15 am 10:15 Sunny 63 17 41 5 45 45 Calm 30.34 1027 10 16.0934 0 0
10:35 am 10:35 Sunny 63 17 37 3 39 39 Calm 30.33 1027 10 16.0934 0 0
10:55 am 10:55 Sunny 64 18 37 3 37 37 Calm 30.32 1027 10 16.0934 0 0
11:35 am 11:35 Sunny 66 19 39 4 37 37 NNE 6 9 30.31 1027 10 16.0934 0 0
11:55 am 11:55 Sunny 66 19 41 5 40 40 WNW 7 11 30.31 1027 10 16.0934 0 0
12:15 pm 12:15 Sunny 68 20 41 5 38 38 NNW 5 7 30.3 1026 10 16.0934 0 0
12:35 pm 12:35 Sunny 68 20 41 5 38 38 N 8 13 30.28 1025 10 16.0934 0 0
12:55 pm 12:55 Sunny 68 20 41 5 38 38 N 9 15 30.27 1025 10 16.0934 0 0
1:15 pm 13:15 Sunny 68 20 41 5 38 38 N 3 6 30.27 1025 10 16.0934 0 0
1:35 pm 13:35 Sunny 70 21 41 5 35 35 N 7 11 30.26 1025 10 16.0934 0 0
1:55 pm 13:55 Partly Cloudy 70 21 43 6 38 38 WNW 7 11 30.25 1024 10 16.0934 0 0
2:15 pm 14:15 Partly Cloudy 70 21 41 5 35 35 NNW 5 7 30.25 1024 10 16.0934 0 0
2:35 pm 14:35 Partly Cloudy 70 21 43 6 38 38 W 13 20 30.23 1024 10 16.0934 0 0
2:55 pm 14:55 Partly Cloudy 70 21 43 6 38 38 Calm 30.23 1024 10 16.0934 0 0
3:15 pm 15:15 Partly Cloudy 72 22 41 5 33 33 NNW 10 17 30.22 1023 10 16.0934 0 0
3:35 pm 15:35 Sunny 72 22 43 6 36 36 WNW 8 13 30.21 1023 10 16.0934 0 0
3:55 pm 15:55 Partly Cloudy 73 23 43 6 33 33 W 10 17 30.21 1023 10 16.0934 0 0
4:15 pm 16:15 Partly Cloudy 73 23 43 6 33 33 WNW 7 11 30.2 1023 10 16.0934 0 0
4:35 pm 16:35 Partly Cloudy 72 22 41 5 33 33 WNW 5 7 30.19 1022 10 16.0934 0 0
4:55 pm 16:55 Sunny 72 22 41 5 33 33 NNW 5 7 30.19 1022 10 16.0934 0 0
5:15 pm 17:15 Sunny 73 23 41 5 31 31 Calm 30.17 1022 10 16.0934 0 0
5:35 pm 17:35 Partly Cloudy 73 23 43 6 33 33 W 7 11 30.17 1022 10 16.0934 0 0
5:55 pm 17:55 Partly Cloudy 73 23 41 5 31 31 WSW 3 6 30.16 1021 10 16.0934 0 0
6:15 pm 18:15 Partly Cloudy 73 23 43 6 33 33 W 3 6 30.15 1021 10 16.0934 0 0
6:35 pm 18:35 Partly Cloudy 73 23 41 5 31 31 Calm 30.15 1021 10 16.0934 0 0
6:55 pm 18:55 Sunny 73 23 41 5 31 31 WSW 3 6 30.14 1021 10 16.0934 0 0
7:15 pm 19:15 Sunny 73 23 43 6 33 33 S 9 15 30.15 1021 10 16.0934 0 0
7:35 pm 19:35 Sunny 72 22 43 6 36 36 SSW 5 7 30.15 1021 10 16.0934 0 0
7:55 pm 19:55 Sunny 70 21 43 6 38 38 S 5 7 30.15 1021 10 16.0934 0 0
8:15 pm 20:15 Sunny 70 21 45 7 40 40 SSW 7 11 30.16 1021 10 16.0934 0 0
8:35 pm 20:35 Clear 68 20 43 6 40 40 SW 3 6 30.16 1021 10 16.0934 0 0
8:55 pm 20:55 Clear 66 19 43 6 43 43 SW 3 6 30.16 1021 10 16.0934 0 0
9:15 pm 21:15 Clear 64 18 45 7 49 49 Calm 30.17 1022 10 16.0934 0 0
9:35 pm 21:35 Clear 64 18 45 7 49 49 Calm 30.17 1022 10 16.0934 0 0
9:55 pm 21:55 Clear 63 17 45 7 52 52 Calm 30.19 1022 10 16.0934 0 0
10:15 pm 22:15 Clear 59 15 46 8 63 63 SW 3 6 30.2 1023 10 16.0934 0 0
10:35 pm 22:35 Clear 59 15 46 8 63 63 SW 3 6 30.2 1023 10 16.0934 0 0
10:55 pm 22:55 Clear 57 14 50 10 77 77 Calm 30.2 1023 10 16.0934 0 0
11:15 pm 23:15 Clear 59 15 46 8 63 63 Calm 30.2 1023 10 16.0934 0 0
11:35 pm 23:35 Clear 55 13 46 8 72 72 SW 3 6 30.2 1023 10 16.0934 0 0
11:55 pm 23:55 Clear 55 13 46 8 72 72 SW 3 6 30.19 1022 10 16.0934 0 0

Powered by AerisWeather